Date,TemperatureHighF,TemperatureAvgF,TemperatureLowF,DewpointHighF,DewpointAvgF,DewpointLowF,HumidityHigh,HumidityAvg,HumidityLow,PressureMaxIn,PressureMinIn,WindSpeedMaxMPH,WindSpeedAvgMPH,GustSpeedMaxMPH,PrecipitationSumIn
2013-1-2,34,29,24,27,24,22,90,81,69,30.33,30.24,3,1,5,0.00
2013-1-3,42,33,19,29,25,17,94,74,55,30.41,30.36,4,2,9,0.00
2013-1-4,46,36,23,32,28,21,93,75,48,30.52,30.43,8,4,13,0.00
2013-1-7,43,33,19,31,27,17,94,78,61,30.52,30.32,5,2,8,0.00
2013-1-8,59,45,27,39,35,25,91,70,44,30.37,30.25,8,3,13,0.00
2013-1-9,55,50,46,50,47,44,94,89,84,30.44,30.37,5,2,6,0.04
2013-1-10,47,47,46,44,44,44,91,90,89,30.41,30.39,10,10,14,0.23
2013-1-16,33,32,31,30,30,29,94,91,86,30.19,30.13,3,0,3,0.00
2013-1-17,48,36,29,38,31,26,94,82,66,30.50,30.16,8,3,16,0.01
2013-1-18,50,35,21,33,26,19,93,71,42,30.62,30.38,7,2,13,0.00
2013-1-19,58,46,34,36,32,26,78,60,39,30.38,30.13,16,8,21,0.00
2013-1-20,49,41,26,36,28,18,86,61,35,30.32,30.16,9,2,11,0.00
2013-1-21,36,28,22,21,16,10,83,63,42,30.38,30.24,7,2,12,0.00
2013-1-22,27,23,16,11,6,3,68,49,38,30.51,30.37,5,2,8,0.00
2013-1-23,50,34,16,32,23,8,85,64,44,30.44,30.18,11,3,15,0.00
2013-1-24,36,29,24,30,16,9,85,59,43,30.58,30.27,10,6,15,0.00
2013-1-25,34,30,28,32,23,11,93,78,45,30.34,30.14,6,2,9,0.18
2013-1-30,56,55,53,52,51,48,95,89,78,29.56,29.46,16,8,23,1.59
2013-2-1,27,25,24,20,17,13,81,73,56,30.48,30.39,3,0,5,0.02
2013-2-2,42,33,24,34,27,18,92,81,59,30.39,30.13,12,4,15,0.00
2013-2-3,42,35,24,34,29,21,91,78,55,30.23,30.04,9,3,13,0.01
2013-2-4,43,29,24,34,26,22,92,88,71,30.17,30.03,6,1,9,0.00
2013-2-5,53,44,43,42,40,34,91,86,51,30.04,29.95,3,1,5,0.00
2013-2-7,57,56,55,46,46,46,71,69,67,29.91,29.90,2,0,3,0.00
2013-2-8,42,39,34,37,34,29,88,80,74,30.38,30.11,7,4,14,0.36
2013-2-11,50,45,43,36,33,30,67,62,53,30.15,30.07,10,6,14,0.00
2013-2-12,49,45,29,37,34,28,94,66,53,30.19,29.86,8,3,10,0.00
2013-2-13,43,39,37,37,35,33,93,85,68,29.97,29.78,8,3,11,0.17
2013-2-14,60,50,34,43,37,33,93,63,41,30.04,29.97,11,4,15,0.01
2013-2-15,49,43,35,37,31,22,83,63,49,30.22,30.04,7,4,14,0.00
2013-2-16,37,36,34,24,17,11,65,48,36,30.24,30.20,8,5,12,0.00
2013-2-18,64,55,42,45,38,32,87,55,33,30.15,29.79,18,12,30,0.25
2013-2-19,45,39,30,30,23,18,83,55,37,30.27,30.06,11,6,17,0.01
2013-2-20,35,29,22,20,19,16,77,67,50,30.35,30.30,6,3,8,0.00
2013-2-21,39,35,27,34,27,20,94,72,54,30.28,29.94,17,9,20,0.74
2013-2-22,56,46,36,46,40,32,92,80,63,30.08,29.98,12,6,15,0.01
2013-2-23,45,42,37,32,31,29,75,64,56,30.04,29.98,4,1,6,0.00
2013-2-24,51,41,30,32,29,26,85,64,46,30.17,30.04,6,4,8,0.00
2013-2-25,59,52,36,36,34,27,73,51,41,30.06,29.68,15,11,19,0.00
2013-2-26,54,44,39,49,41,35,95,87,78,29.70,29.39,16,10,21,0.77
2013-2-27,39,38,37,34,33,32,89,83,79,29.90,29.84,14,10,18,0.00
2013-3-1,40,37,34,34,33,32,94,87,75,30.10,30.06,5,3,9,0.10
2013-3-2,34,32,31,30,29,26,94,87,79,30.19,30.10,7,4,11,0.04
2013-3-4,59,50,34,40,31,23,71,49,37,30.15,29.84,7,3,11,0.01
2013-3-5,52,42,36,51,40,32,97,90,73,29.96,29.74,13,6,19,0.68
2013-3-6,40,35,30,30,28,25,84,74,63,30.37,30.24,9,4,18,0.00
2013-3-7,41,35,31,32,28,26,83,76,67,30.45,30.36,6,3,9,0.00
2013-3-8,54,46,34,37,32,29,84,60,41,30.48,30.32,9,6,15,0.00
2013-3-9,66,62,60,41,37,33,46,39,31,30.14,30.07,7,3,11,0.00
2013-3-10,59,57,57,38,37,37,49,48,44,30.01,29.98,8,7,12,0.00
2013-3-11,46,44,41,44,41,38,91,89,85,29.86,29.78,12,8,14,1.28
2013-3-25,36,33,32,31,30,28,94,86,77,30.18,29.92,10,6,18,0.05
2013-3-26,38,35,31,31,30,29,91,82,72,30.33,30.24,6,4,9,0.08
2013-3-28,60,52,43,40,37,30,78,56,41,30.42,30.31,3,1,7,0.01
2013-3-29,55,49,43,49,45,38,95,88,75,30.34,30.22,5,1,8,0.50
2013-3-30,54,50,44,51,47,42,97,90,79,30.23,29.93,6,2,11,0.34
2013-3-31,62,54,44,53,50,42,97,87,60,29.98,29.90,10,2,12,0.04
2013-4-1,58,49,38,46,39,27,96,69,51,30.21,29.93,6,2,9,0.00
2013-4-2,49,42,37,30,26,21,73,54,37,30.33,30.21,6,1,9,0.00
2013-4-3,53,45,33,31,26,22,69,48,30,30.37,30.23,13,6,18,0.00
2013-4-4,46,43,39,44,36,26,95,78,50,30.23,30.04,5,2,8,0.33
2013-4-5,69,52,33,43,38,32,97,66,31,30.17,30.06,5,1,9,0.01
2013-4-6,76,58,40,45,41,37,91,57,29,30.14,29.93,11,4,14,0.00
2013-4-7,77,65,59,54,48,40,69,55,38,30.04,29.95,13,6,19,0.00
2013-4-8,78,67,57,58,53,48,78,63,43,29.99,29.90,14,5,20,0.00
2013-4-9,78,68,57,65,60,52,92,77,62,30.08,29.95,10,3,17,0.00
2013-4-10,86,75,66,65,61,56,83,64,43,30.00,29.74,14,6,17,0.00
2013-4-11,75,65,56,61,60,54,96,86,52,29.77,29.57,8,3,13,1.97
2013-4-12,61,54,39,48,42,36,91,66,49,29.91,29.87,14,9,18,0.01
2013-4-13,65,58,42,47,42,37,86,55,44,30.14,30.02,4,2,7,0.00
2013-4-15,82,74,55,62,58,52,91,59,45,29.98,29.88,7,4,12,0.00
2013-4-16,81,74,66,70,67,62,85,78,68,30.10,30.03,9,4,13,0.00
2013-4-17,89,81,66,71,66,62,95,63,44,30.11,29.91,12,6,16,0.00
2013-4-18,83,78,72,66,64,61,82,62,51,29.86,29.65,14,10,22,0.00
2013-4-19,47,44,42,38,35,33,81,70,60,30.06,29.90,14,8,18,0.42
2013-4-20,61,54,42,40,37,32,89,54,36,30.35,30.26,5,2,13,0.00
2013-4-21,63,63,63,41,37,33,45,39,33,30.32,30.30,7,6,10,0.00
2013-4-22,72,63,46,53,46,39,79,56,35,30.29,30.09,6,2,9,0.00
2013-4-23,74,67,54,56,54,49,84,64,51,30.11,29.92,12,8,17,0.00
2013-4-24,49,46,43,44,42,40,93,85,73,30.24,29.92,10,5,13,0.57
2013-4-25,66,59,34,45,41,32,95,52,38,30.42,30.33,6,2,8,0.01
2013-4-26,55,53,47,50,47,40,92,81,66,30.48,30.35,7,2,10,0.31
2013-4-27,59,58,55,58,56,54,97,94,92,30.18,30.01,6,4,10,1.25
2013-4-28,57,54,51,55,52,49,95,93,88,29.98,29.96,6,2,10,0.21
2013-4-29,75,67,49,60,55,46,98,67,38,30.06,29.92,2,1,7,0.01
2013-4-30,80,73,52,62,57,51,94,60,44,30.03,29.95,6,2,10,0.00
2013-5-1,80,74,58,66,61,54,86,64,55,30.11,30.03,6,2,8,0.00
2013-5-2,77,70,58,63,59,57,94,70,51,30.17,30.05,5,1,10,0.01
2013-5-3,76,68,50,61,57,48,92,68,51,29.99,29.81,12,5,15,0.08
2013-5-4,50,45,43,43,42,41,95,89,72,30.00,29.94,7,4,10,0.87
2013-5-5,58,57,57,52,52,51,82,80,78,29.87,29.86,3,2,6,0.00
2013-5-6,70,60,52,58,54,49,96,80,52,29.87,29.84,6,2,9,0.10
2013-5-7,72,65,51,62,57,50,98,77,60,30.03,29.97,4,2,7,0.01
2013-5-8,81,73,57,62,59,55,95,63,43,30.07,30.00,4,2,7,0.01
2013-5-9,80,74,58,66,62,56,95,68,52,30.07,29.96,10,5,14,0.00
2013-5-10,64,63,63,62,62,62,96,96,95,29.95,29.93,4,2,5,0.56
2013-5-13,71,68,62,46,39,36,47,36,29,30.29,30.17,8,2,10,0.00
2013-5-14,86,76,53,62,58,46,77,54,39,30.13,29.96,14,8,20,0.00
2013-5-15,85,76,66,61,56,46,73,52,29,30.08,29.95,14,7,22,0.00
2013-5-16,67,66,65,58,58,57,75,74,73,29.95,29.95,5,4,7,0.00
2013-5-17,69,68,67,66,65,64,93,90,87,30.01,29.96,4,3,8,0.23
2013-5-18,83,75,66,69,67,65,98,78,60,30.01,29.95,4,2,7,0.01
2013-5-20,86,78,68,72,70,67,95,77,58,30.00,29.92,8,5,13,0.00
2013-5-21,78,70,65,70,66,62,95,88,69,29.99,29.85,12,4,18,0.75
2013-5-22,76,71,64,69,66,62,96,83,71,29.87,29.81,11,7,14,0.06
2013-5-23,73,69,63,61,58,54,89,68,58,30.02,29.97,8,4,10,0.00
2013-5-24,71,62,52,53,50,45,86,65,40,30.36,30.28,4,2,12,0.00
2013-5-25,76,67,48,54,50,45,96,57,35,30.38,30.23,3,1,7,0.00
2013-5-27,84,77,62,65,62,58,86,60,46,30.13,30.01,13,6,18,0.00
2013-5-28,87,81,69,68,64,60,77,58,43,30.07,30.00,13,8,21,0.00
2013-5-29,88,81,68,71,67,63,88,64,46,30.11,29.98,9,5,14,0.01
2013-5-30,87,81,72,70,69,66,80,67,57,30.09,29.96,11,6,16,0.00
2013-5-31,81,74,70,75,70,67,96,89,80,30.03,29.94,10,4,15,1.02
2013-6-1,70,67,65,67,65,62,96,93,90,30.00,29.79,5,2,10,0.66
2013-6-2,67,67,67,66,66,65,96,95,94,29.94,29.93,2,1,4,0.01
2013-6-3,78,72,65,64,60,56,87,67,49,30.06,29.96,3,2,6,0.00
2013-6-4,82,74,60,64,61,56,87,65,49,30.08,29.98,4,2,8,0.00
2013-6-5,86,82,78,71,69,67,74,64,55,29.98,29.84,4,2,9,0.00
2013-6-6,80,73,65,72,68,64,98,85,67,29.83,29.77,3,1,6,1.03
2013-6-7,80,76,68,71,67,64,90,74,60,29.83,29.78,7,2,10,0.00
2013-6-8,81,75,67,66,64,57,94,70,48,30.00,29.96,5,2,7,0.00
2013-6-10,82,75,68,74,69,66,94,81,60,29.93,29.85,8,4,13,0.09
2013-6-11,90,83,62,78,71,61,97,69,55,30.03,29.94,5,2,8,0.01
2013-6-12,91,84,75,79,76,72,91,77,63,30.04,29.92,8,4,12,0.00
2013-6-13,79,79,79,74,73,73,83,83,83,29.84,29.83,7,6,9,0.00
2013-6-18,85,84,83,70,68,66,65,59,54,29.95,29.91,2,1,7,0.35
2013-6-19,87,78,70,74,69,66,94,77,52,30.06,30.00,2,0,4,0.00
2013-6-20,90,80,69,73,69,67,93,72,51,30.15,30.10,3,2,6,0.00
2013-6-21,83,80,76,72,70,68,78,73,67,30.19,30.18,5,3,9,0.00
2013-6-22,86,82,76,73,72,70,87,72,60,30.19,30.07,5,1,8,0.00
2013-6-23,88,80,69,72,70,67,94,73,57,30.08,30.06,3,1,6,0.00
2013-6-24,86,79,72,77,73,69,92,82,69,30.16,30.05,5,1,7,0.03
2013-6-25,89,79,69,77,73,68,97,82,65,30.08,29.93,6,2,10,0.00
2013-6-26,89,80,72,78,74,70,96,81,65,29.97,29.78,9,4,14,0.00
2013-6-27,91,87,77,78,75,71,92,68,53,29.86,29.82,7,4,11,0.07
2013-6-28,88,81,72,74,70,66,93,72,52,29.81,29.67,5,3,8,0.00
2013-6-29,84,80,69,68,65,62,84,61,52,29.69,29.63,7,4,10,0.00
2013-6-30,75,74,73,66,65,64,77,74,73,29.79,29.78,1,1,6,0.00
2013-7-1,75,72,67,70,67,63,96,85,73,29.87,29.81,7,1,11,0.02
2013-7-2,78,72,66,68,66,63,96,81,63,29.98,29.95,6,3,9,0.00
2013-7-3,83,74,62,70,66,61,98,77,59,30.11,30.05,4,1,8,0.00
2013-7-5,83,76,68,72,70,66,97,81,65,30.12,30.05,3,1,10,0.07
2013-7-6,80,74,68,73,70,66,96,87,77,30.12,30.03,5,2,8,0.54
2013-7-7,88,83,67,75,72,66,98,72,60,30.12,30.05,3,1,5,0.04
2013-7-8,89,86,80,78,75,71,86,70,58,30.16,30.08,4,2,7,0.00
2013-7-9,91,86,76,79,77,75,95,74,63,30.12,30.01,5,3,8,0.01
2013-7-10,91,85,81,82,77,74,84,78,69,30.02,29.87,6,3,10,0.00
2013-7-11,89,85,77,78,74,66,92,70,56,29.96,29.94,4,1,8,0.00
2013-7-12,83,78,63,65,61,57,91,58,45,30.06,29.98,7,4,9,0.00
2013-7-13,81,78,75,66,65,64,73,66,59,30.07,30.04,4,3,6,0.00
2013-7-15,89,84,79,76,74,72,82,72,58,30.25,30.18,4,2,10,0.00
2013-7-16,93,89,82,76,74,71,76,61,50,30.32,30.23,3,1,5,0.00
2013-7-17,94,90,80,78,76,72,89,63,53,30.32,30.18,3,2,5,0.00
2013-7-18,92,81,72,81,75,70,96,82,66,30.18,30.05,6,1,14,0.38
2013-7-19,90,83,72,78,75,71,98,76,62,30.09,29.94,5,2,8,0.00
2013-7-20,89,79,72,77,73,70,97,83,63,29.98,29.84,6,2,10,0.00
2013-7-21,90,78,71,78,73,70,97,86,63,29.98,29.87,7,1,11,0.06
2013-7-22,71,71,71,70,70,70,97,97,96,29.89,29.87,3,2,11,0.92
2013-7-23,87,81,68,76,72,64,92,74,61,29.92,29.79,6,3,12,0.10
2013-7-24,86,73,64,73,67,62,98,81,58,29.99,29.80,5,1,8,0.08
2013-7-25,83,72,60,68,63,59,97,77,51,30.08,29.97,4,0,6,0.00
2013-7-26,82,68,58,70,63,57,98,84,56,30.08,29.98,4,1,7,0.00
2013-7-27,82,73,63,71,67,60,97,82,63,30.00,29.88,5,2,9,0.01
2013-7-28,78,67,53,63,57,51,96,74,43,30.10,29.98,5,1,7,0.00
2013-7-29,81,71,56,67,62,55,98,76,49,30.20,30.09,3,1,5,0.00
2013-7-30,74,70,65,71,68,62,97,92,77,30.19,30.07,5,1,10,0.23
2013-7-31,86,73,68,76,70,67,98,91,68,30.08,29.93,2,1,6,0.00
2013-8-1,86,74,64,72,68,62,98,83,55,30.06,29.97,3,0,6,0.00
2013-8-2,86,73,59,72,66,58,98,80,53,30.06,29.97,3,0,5,0.01
2013-8-3,81,73,68,75,70,67,96,91,78,30.05,29.96,4,1,7,0.10
2013-8-4,68,68,67,62,62,62,85,82,80,30.11,30.10,1,1,2,0.00
2013-8-5,81,70,63,69,65,61,97,84,58,30.10,29.95,3,0,5,0.13
2013-8-6,82,74,67,76,72,66,98,92,79,29.97,29.90,4,1,7,0.24
2013-8-9,90,80,73,79,74,72,95,84,68,30.04,29.95,3,1,5,0.00
2013-8-10,85,75,71,75,72,70,99,91,69,30.13,30.02,4,1,7,0.93
2013-8-11,87,78,72,78,74,71,99,88,68,30.13,30.04,3,0,6,0.05
2013-8-12,86,76,71,77,73,70,99,93,73,30.08,29.92,6,1,11,0.51
2013-8-13,82,74,68,70,67,63,89,80,65,30.04,29.93,2,1,5,0.00
2013-8-14,68,65,62,63,61,59,88,87,86,30.06,30.03,3,2,6,0.00
2013-8-16,77,73,69,69,68,67,94,84,73,30.10,30.06,2,1,4,0.04
2013-8-17,80,71,65,70,67,64,98,88,69,30.15,30.06,3,1,7,0.31
2013-8-18,82,71,64,70,67,63,99,88,64,30.17,30.07,2,0,5,0.01
2013-8-19,85,73,62,73,67,62,99,85,61,30.14,30.04,3,1,6,0.01
2013-8-20,88,78,69,76,72,68,97,81,63,30.11,30.04,4,1,5,0.22
2013-8-21,90,78,68,76,72,67,99,83,53,30.16,30.06,4,1,6,0.01
2013-8-22,91,78,68,77,72,67,99,83,52,30.15,30.02,3,1,6,0.00
2013-8-23,92,76,68,77,71,67,99,87,54,30.09,30.00,5,0,7,0.06
2013-8-24,88,76,65,74,69,64,99,80,56,30.20,30.09,4,1,9,0.01
2013-8-25,88,77,67,74,70,64,96,80,59,30.31,30.20,3,1,7,0.00
2013-8-26,88,76,65,74,70,64,98,83,59,30.28,30.14,5,1,9,0.00
2013-8-27,88,76,66,75,71,65,97,83,62,30.15,30.04,7,2,11,0.01
2013-8-28,91,79,68,74,71,67,98,80,52,30.07,30.00,5,2,10,0.01
2013-8-29,94,82,70,77,73,69,96,77,51,30.03,29.94,5,1,8,0.00
2013-8-30,94,82,72,76,73,71,98,78,50,29.99,29.88,6,2,10,0.00
2013-8-31,95,82,72,77,74,71,96,78,53,29.92,29.80,7,2,13,0.00
2013-9-1,84,74,67,73,69,65,96,86,68,29.93,29.81,10,4,16,1.43
2013-9-4,85,75,60,68,63,59,98,70,46,30.16,30.09,3,1,9,0.01
2013-9-5,86,71,58,68,63,57,98,79,49,30.20,30.13,4,1,7,0.01
2013-9-6,88,74,59,70,65,58,99,78,48,30.19,30.07,6,1,9,0.00
2013-9-7,89,75,62,72,67,60,99,80,47,30.10,29.98,7,2,10,0.01
2013-9-8,91,79,67,75,70,66,98,78,51,30.01,29.92,4,1,7,0.00
2013-9-9,90,80,72,77,73,69,95,82,60,30.04,29.97,5,2,7,0.03
2013-9-10,76,74,72,74,72,71,97,95,92,30.14,30.04,1,0,2,0.00
2013-9-14,74,64,53,54,52,51,94,68,47,30.10,30.06,4,1,6,0.00
2013-9-15,53,53,53,51,51,51,93,93,93,30.10,30.10,0,0,0,0.00
2013-9-16,78,77,75,68,67,66,74,71,67,30.16,30.15,2,1,4,0.01
2013-9-17,84,72,62,68,64,60,95,77,51,30.22,30.09,3,1,7,0.00
2013-9-18,82,72,64,71,68,62,97,85,69,30.16,30.05,8,2,10,0.00
2013-9-19,88,76,66,72,69,65,97,82,59,30.12,29.99,9,2,12,0.00
2013-9-20,83,73,68,72,68,65,97,86,64,30.01,29.81,7,2,10,1.66
2013-9-21,72,63,56,67,59,52,98,88,54,29.91,29.78,3,0,8,0.24
2013-9-22,75,63,49,57,53,48,97,72,47,30.00,29.90,5,2,9,0.00
2013-9-23,78,64,51,60,56,49,93,76,47,30.04,29.95,6,1,10,0.00
2013-9-24,83,68,56,68,62,55,97,82,50,30.00,29.84,6,1,11,0.23
2013-9-25,80,69,62,69,65,61,98,88,63,29.89,29.81,4,1,8,0.03
2013-9-26,76,62,58,68,60,57,99,94,75,30.04,29.88,4,0,5,0.01
2013-9-27,83,67,52,65,59,50,98,77,43,30.14,30.04,4,1,6,0.00
2013-9-28,82,69,59,63,60,57,96,76,45,30.18,30.06,8,2,11,0.00
2013-9-29,65,62,59,63,60,56,98,92,84,30.10,30.01,3,1,5,0.54
2013-9-30,76,67,62,66,64,61,98,89,68,30.04,29.97,7,1,11,0.00
2013-10-1,70,65,63,65,63,62,96,92,83,30.10,30.01,3,0,6,0.00
2013-10-2,78,74,69,73,71,68,97,90,79,30.13,30.05,4,1,7,0.02
2013-10-3,86,74,66,70,67,64,99,81,52,30.09,29.99,7,2,11,0.00
2013-10-4,86,73,64,74,68,63,97,86,66,30.09,30.00,6,1,9,0.00
2013-10-5,88,74,67,74,70,66,97,88,59,30.05,29.87,8,2,14,0.23
2013-10-6,73,60,51,69,58,47,98,91,81,29.98,29.83,7,2,11,1.52
2013-10-7,67,55,43,53,48,43,98,79,52,30.16,29.95,4,1,7,0.01
2013-10-8,71,59,48,53,49,45,91,71,42,30.22,30.12,10,3,14,0.00
2013-10-9,80,64,49,64,56,47,95,79,54,30.20,30.11,5,1,7,0.00
2013-10-10,60,59,58,59,58,57,96,95,94,30.14,30.13,0,0,0,0.00
2013-10-16,59,57,54,57,55,52,96,93,90,30.01,29.97,0,0,3,0.31
2013-10-17,63,54,45,53,50,44,97,87,66,30.04,29.94,6,1,9,0.05
2013-10-18,68,56,42,53,48,41,97,79,52,30.06,29.98,5,1,8,0.00
2013-10-19,54,49,39,52,46,38,96,88,65,30.10,29.91,6,2,12,0.13
2013-10-20,65,49,36,48,42,35,98,80,45,30.15,30.04,7,2,10,0.01
2013-10-21,69,54,38,53,46,37,96,78,47,30.09,29.99,9,2,13,0.03
2013-10-22,62,52,44,51,44,38,92,74,44,30.10,29.88,6,2,12,0.07
2013-10-23,52,46,38,47,38,34,94,76,54,30.16,29.90,7,3,12,0.00
2013-10-24,51,43,31,42,37,28,95,79,55,30.42,30.15,7,1,12,0.00
2013-10-25,52,38,27,34,29,25,94,74,37,30.57,30.37,4,1,6,0.00
2013-10-26,57,44,28,45,36,26,94,76,54,30.37,30.10,11,3,15,0.01
2013-10-27,67,52,39,53,48,38,98,84,58,30.15,30.06,4,0,7,0.00
2013-10-28,68,58,53,60,55,52,98,90,68,30.27,30.09,3,0,5,0.07
2013-10-29,66,57,49,61,55,48,99,93,82,30.32,30.15,5,1,9,0.02
2013-10-30,77,68,62,66,62,58,94,81,67,30.19,30.02,10,3,15,0.00
2013-10-31,69,65,58,66,62,56,95,89,74,30.02,29.53,18,9,24,0.69
2013-11-1,68,57,49,57,51,45,98,81,48,29.86,29.69,8,4,11,0.01
2013-11-2,59,49,40,48,44,37,97,83,57,30.22,29.85,6,1,10,0.01
2013-11-3,58,47,37,40,38,34,94,70,45,30.32,30.25,5,1,8,0.01
2013-11-4,61,50,38,48,42,36,93,75,54,30.39,30.28,8,1,12,0.00
2013-11-5,69,58,51,50,45,41,74,63,46,30.39,30.21,6,2,10,0.00
2013-11-6,68,58,44,60,52,41,97,80,57,30.21,30.05,12,4,19,0.27
2013-11-7,54,43,32,42,35,29,95,75,40,30.39,30.21,5,1,8,0.00
2013-11-8,57,43,28,40,32,27,97,69,36,30.45,30.27,5,1,9,0.00
2013-11-9,63,48,34,40,35,29,82,63,40,30.30,30.17,13,3,17,0.00
2013-11-10,43,42,40,37,37,36,86,83,80,30.28,30.27,0,0,0,0.00
2013-11-11,69,56,29,44,35,26,95,48,21,30.35,30.17,5,1,8,0.00
2013-11-12,52,36,27,44,29,22,90,74,47,30.70,30.25,7,2,14,0.05
2013-11-13,46,32,22,28,23,19,92,71,42,30.76,30.48,3,0,7,0.00
2013-11-14,50,36,24,23,21,19,88,57,31,30.48,30.22,1,0,2,0.00
2013-11-15,51,44,33,50,38,21,97,79,60,30.23,30.09,4,0,7,0.03
2013-11-16,64,59,51,61,56,49,95,91,86,30.11,29.88,9,5,13,0.04
2013-11-17,70,64,55,67,61,41,98,89,60,29.96,29.64,13,7,19,1.69
2013-11-18,60,50,40,46,37,30,84,62,41,30.29,29.95,7,2,10,0.00
2013-11-19,45,40,35,33,31,29,81,70,59,30.29,30.24,4,1,6,0.00
2013-11-20,60,41,30,39,33,27,91,74,43,30.27,30.17,8,2,13,0.00
2013-11-21,67,55,43,55,48,36,95,79,60,30.29,30.17,7,2,11,0.09
2013-11-22,59,51,42,57,49,39,98,93,89,30.42,30.20,5,2,10,0.61
2013-11-23,45,37,23,39,28,16,90,72,34,30.65,30.40,7,3,14,0.00
2013-11-24,34,27,19,20,17,14,82,67,47,30.75,30.51,8,3,11,0.00
2013-11-25,43,33,28,33,25,18,95,74,46,30.52,30.22,9,2,12,0.03
2013-11-26,36,34,34,34,33,32,96,95,86,30.24,30.01,5,2,9,0.08
2013-11-27,27,21,17,14,14,13,88,73,58,30.44,30.35,2,0,4,0.00
2013-11-28,44,28,15,22,18,12,91,69,41,30.54,30.40,9,2,13,0.00
2013-11-29,52,35,22,32,26,19,93,72,44,30.65,30.50,4,1,9,0.00
2013-11-30,57,41,26,35,27,22,91,60,30,30.50,30.25,11,3,14,0.00
2013-12-1,54,49,42,41,37,30,77,63,58,30.25,29.96,5,2,7,0.00
2013-12-2,58,51,44,49,45,40,93,81,69,29.96,29.76,5,1,7,0.00
2013-12-3,62,54,46,55,51,45,98,91,76,29.83,29.74,3,0,6,0.00
2013-12-4,74,66,56,63,60,55,96,81,60,29.84,29.70,14,6,20,0.00
2013-12-5,69,47,32,65,44,31,96,89,81,30.20,29.83,10,4,15,0.67
2013-12-6,33,30,26,31,28,24,94,93,91,30.48,30.13,7,2,10,0.18
2013-12-7,27,24,21,25,21,18,92,90,86,30.64,30.42,7,3,10,0.00
2013-12-8,33,32,27,32,30,25,98,96,92,30.42,30.09,6,2,10,0.03
2013-12-9,33,31,27,32,28,22,97,87,79,30.32,30.15,7,2,9,0.03
2013-12-10,38,29,24,30,24,20,93,83,63,30.45,30.24,8,2,12,0.12
2013-12-11,42,30,19,34,25,17,95,83,62,30.64,30.44,10,2,13,0.20
2013-12-12,23,21,19,18,17,15,86,84,82,30.67,30.64,1,1,3,0.00
2013-12-13,38,37,36,34,31,28,89,80,69,30.17,30.02,4,1,7,0.14
2013-12-14,44,39,34,43,37,31,97,93,88,30.09,29.83,7,4,11,0.40
2013-12-15,34,31,28,31,28,26,93,87,82,30.27,30.09,8,4,12,0.00
2013-12-16,54,41,27,40,35,26,95,78,59,30.23,30.09,11,5,14,0.00
2013-12-17,49,40,29,40,33,26,92,77,52,30.33,30.12,7,2,11,0.00
2013-12-18,51,38,23,31,25,20,95,64,33,30.40,30.17,7,2,11,0.00
2013-12-19,60,52,41,49,42,30,78,68,57,30.20,30.00,14,6,20,0.00
2013-12-20,64,60,54,60,55,46,93,85,68,30.01,29.87,12,7,15,0.17
2013-12-21,73,66,59,66,62,57,97,88,78,29.89,29.51,18,8,23,0.85
2013-12-22,62,49,36,60,47,34,95,91,84,30.21,29.58,13,5,18,0.03
2013-12-23,36,32,24,34,27,22,93,84,73,30.52,30.21,5,2,10,0.43
2013-12-24,29,25,19,23,17,13,88,74,54,30.67,30.51,5,2,10,0.00
2013-12-26,47,35,26,33,27,23,95,76,46,30.49,30.41,3,0,5,0.00
2013-12-27,54,36,22,35,27,20,95,74,45,30.52,30.39,5,1,7,0.00
2013-12-28,46,36,26,38,32,23,95,83,61,30.40,30.01,2,0,3,0.12
2013-12-29,53,40,29,44,37,25,97,88,68,30.22,29.95,9,3,12,0.19
2013-12-30,31,27,22,26,23,20,94,84,75,30.36,30.21,3,1,7,0.00
2013-12-31,43,31,21,30,24,18,93,77,55,30.50,30.34,5,1,7,0.00
2014-1-1,51,38,23,37,29,21,95,73,45,30.36,29.99,8,2,11,0.03
2014-1-2,41,28,17,39,24,12,96,86,76,30.47,29.90,11,5,15,0.08